| time (UTC) | temp F | wind direction | speed MPH | gust MPH | rain 1hr in | rain 24hr in | rain mn in | humidity % | barometer mb |
| 20260906054547 | 74 | 205 | 0.0 | 1.0 | 0.00 | 0.00 | 0.00 | 86 | 1017.9 |
| 20260906050200 | 74 | 297 | 0.0 | 2.0 | 0.00 | 0.00 | 0.00 | 87 | 1018.0 |
| 20260906044608 | 75 | 255 | 0.0 | 3.0 | 0.00 | 0.00 | 0.00 | 85 | 1017.8 |
| 20260906040159 | 76 | 62 | 0.0 | 2.0 | 0.00 | 0.00 | 0.00 | 83 | 1017.9 |
| 20260906033159 | 76 | 253 | 1.0 | 2.0 | 0.00 | 0.00 | 0.00 | 81 | 1018.3 |
| 20260906030159 | 77 | 15 | 0.0 | 2.0 | 0.00 | 0.00 | 0.00 | 79 | 1018.4 |
| 20260906020159 | 78 | 37 | 0.0 | 2.0 | 0.00 | 0.00 | 0.00 | 75 | 1017.6 |
| 20260906013159 | 79 | 284 | 0.0 | 2.0 | 0.00 | 0.00 | 0.00 | 73 | 1017.7 |
| 20260906011545 | 81 | 224 | 0.0 | 2.0 | 0.00 | 0.00 | 0.00 | 70 | 1017.2 |
| 20260906003159 | 82 | 269 | 0.0 | 2.0 | 0.00 | 0.00 | 0.00 | 69 | 1016.7 |
| 20260906000159 | 83 | 345 | 0.0 | 1.0 | 0.00 | 0.00 | 0.00 | 67 | 1016.8 |
| 20260905233159 | 84 | 315 | 0.0 | 2.0 | 0.00 | 0.00 | 0.00 | 65 | 1016.4 |
| 20260905231534 | 85 | 258 | 0.0 | 2.0 | 0.00 | 0.00 | 0.00 | 63 | 1016.3 |
| 20260905223201 | 85 | 352 | 0.0 | 3.0 | 0.00 | 0.00 | 0.00 | 64 | 1016.5 |
| 20260905220200 | 84 | 22 | 1.0 | 4.0 | 0.00 | 0.00 | 0.00 | 62 | 1016.1 |
| 20260905213200 | 84 | 15 | 0.0 | 5.0 | 0.00 | 0.00 | 0.00 | 61 | 1016.7 |
| 20260905210159 | 84 | 28 | 2.0 | 6.0 | 0.00 | 0.00 | 0.00 | 61 | 1017.3 |
| 20260905203200 | 84 | 84 | 3.0 | 5.0 | 0.00 | 0.00 | 0.00 | 61 | 1017.3 |
| 20260905200159 | 84 | 59 | 4.0 | 6.0 | 0.00 | 0.00 | 0.00 | 58 | 1017.8 |
| 20260905193200 | 83 | 64 | 1.0 | 4.0 | 0.00 | 0.00 | 0.00 | 62 | 1018.2 |
| 20260905190159 | 83 | 17 | 2.0 | 3.0 | 0.00 | 0.00 | 0.00 | 64 | 1018.3 |
| 20260905183200 | 84 | 30 | 2.0 | 5.0 | 0.00 | 0.00 | 0.00 | 60 | 1019.1 |
| 20260905181558 | 85 | 80 | 2.0 | 15.0 | 0.00 | 0.00 | 0.00 | 56 | 1019.2 |
| 20260905173159 | 91 | 231 | 2.0 | 9.0 | 0.00 | 0.00 | 0.00 | 55 | 1018.1 |
| 20260905170159 | 92 | 286 | 2.0 | 9.0 | 0.00 | 0.00 | 0.00 | 54 | 1018.7 |
| 20260905164536 | 92 | 31 | 0.0 | 10.0 | 0.00 | 0.00 | 0.00 | 54 | 1018.7 |
| 20260905160159 | 91 | 27 | 3.0 | 8.0 | 0.00 | 0.00 | 0.00 | 59 | 1018.9 |
| 20260905153159 | 89 | 5 | 2.0 | 6.0 | 0.00 | 0.00 | 0.00 | 61 | 1019.5 |
| 20260905150159 | 87 | 307 | 2.0 | 6.0 | 0.00 | 0.00 | 0.00 | 65 | 1018.9 |
| 20260905143159 | 85 | 12 | 2.0 | 6.0 | 0.00 | 0.00 | 0.00 | 69 | 1019.4 |
| 20260905133159 | 80 | 346 | 1.0 | 5.0 | 0.00 | 0.00 | 0.00 | 81 | 1019.6 |
| 20260905130159 | 76 | 42 | 3.0 | 5.0 | 0.00 | 0.00 | 0.00 | 84 | 1019.9 |
| 20260905123159 | 73 | 56 | 2.0 | 3.0 | 0.00 | 0.00 | 0.00 | 87 | 1020.0 |
| 20260905120159 | 71 | 68 | 2.0 | 3.0 | 0.00 | 0.00 | 0.00 | 88 | 1020.0 |
| 20260905113159 | 72 | 96 | 0.0 | 2.0 | 0.00 | 0.00 | 0.00 | 85 | 1019.4 |
| 20260905110200 | 73 | 135 | 0.0 | 1.0 | 0.00 | 0.00 | 0.00 | 86 | 1019.1 |
| 20260905103159 | 71 | 230 | 0.0 | 1.0 | 0.00 | 0.00 | 0.00 | 88 | 1018.8 |
| 20260905101549 | 71 | 315 | 0.0 | 1.0 | 0.00 | 0.00 | 0.00 | 86 | 1018.4 |
| 20260905094542 | 72 | 50 | 0.0 | 1.0 | 0.00 | 0.00 | 0.00 | 85 | 1018.4 |
| 20260905090159 | 72 | 44 | 0.0 | 1.0 | 0.00 | 0.00 | 0.00 | 86 | 1018.6 |
| 20260905083159 | 73 | 297 | 0.0 | 1.0 | 0.00 | 0.00 | 0.00 | 85 | 1019.1 |
| 20260905081603 | 73 | 44 | 0.0 | 1.0 | 0.00 | 0.00 | 0.00 | 84 | 1019.3 |
| 20260905073159 | 74 | 50 | 0.0 | 1.0 | 0.00 | 0.00 | 0.00 | 84 | 1019.4 |
| 20260905070200 | 74 | 284 | 0.0 | 0.0 | 0.00 | 0.00 | 0.00 | 82 | 1019.7 |
| 20260905063159 | 75 | 315 | 0.0 | 0.0 | 0.00 | 0.00 | 0.00 | 82 | 1019.8 |